Monterey, Australia

9:12 AM AEDT on October 21, 2017 (GMT +1100)
Monterey

Weather History for 94767 - September, 2013

Change the Weather History Date:

Thursday, September 5, 2013

  Actual Average Record
Temperature  
Mean Temperature 70 °F -  
Max Temperature 85 °F 70 °F - ()
Min Temperature 54 °F 51 °F - ()
Cooling Degree Days 4    
Growing Degree Days 20 (Base 50)    
Moisture  
Dew Point 51 °F    
Average Humidity 57    
Maximum Humidity 88    
Minimum Humidity 16    
Precipitation  
Precipitation 0.00 in 0.08 in - ()
Sea Level Pressure  
Sea Level Pressure 30.28 in    
Wind  
Wind Speed 6 mph ()    
Max Wind Speed 13 mph    
Max Gust Speed -    
Visibility 14.4 miles    
Events      
T = Trace of Precipitation, MM = Missing Value Source: Averaged Metar Reports

Daily Weather History Graph

Daily Weather History Graph

Search for Another Location

Airport or City:

Trip Planner

Search our weather history database for the weather conditions in past years. The results will help you decide how hot, cold, wet, or windy it might be!

Date:

Astronomy

Sep. 05, 2013 Rise Set
Actual Time 6:08 AM AEST 5:39 PM AEST
Civil Twilight 5:43 AM AEST 6:04 PM AEST
Nautical Twilight 5:14 AM AEST 6:33 PM AEST
Astronomical Twilight 4:45 AM AEST 7:02 PM AEST
Moon 5:33 AM AEST (9/5) 5:29 PM AEST (9/5)
Length of Visible Light 12h 21m
Length of Day
11h 31m
Waning Crescent, 0% of the Moon is Illuminated
Sep 5
Waning Crescent
Sep 5
New
Sep 13
First Quarter
Sep 19
Full
Sep 27
Last Quarter

Hourly Weather History & Observations

Time (AEST) Temp. Dew Point Humidity Pressure Visibility Wind Dir Wind Speed Gust Speed Precip Events Conditions
12:00 AM 61 °F 54 °F 70% 30.38 in 16 mi North 3.5 mph - -   Partly Cloudy
12:00 AM 60.8 °F 53.6 °F 77% 30.36 in - North 3.5 mph - N/A   Clear
12:30 AM 60.8 °F 53.6 °F 77% 30.36 in - North 3.5 mph - N/A   Clear
1:00 AM 59 °F 53 °F 75% 30.37 in - North 4.6 mph - -  
1:00 AM 59.0 °F 53.6 °F 82% 30.36 in - North 4.6 mph - N/A   Clear
1:30 AM 57.2 °F 53.6 °F 88% 30.33 in - NNE 4.6 mph - N/A   Clear
2:00 AM 58 °F 53 °F 79% 30.34 in - NNE 4.6 mph - -  
2:00 AM 57.2 °F 53.6 °F 88% 30.33 in - NNE 4.6 mph - N/A   Clear
2:30 AM 57.2 °F 53.6 °F 88% 30.33 in - North 4.6 mph - N/A   Clear
3:00 AM 57 °F 52 °F 79% 30.33 in 16 mi NW 6.9 mph - -   Partly Cloudy
3:00 AM 57.2 °F 51.8 °F 82% 30.30 in - NW 6.9 mph - N/A   Clear
3:30 AM 55.4 °F 51.8 °F 88% 30.30 in - NNW 5.8 mph - N/A   Clear
4:00 AM 56 °F 52 °F 80% 30.33 in - NW 5.8 mph - -  
4:00 AM 55.4 °F 51.8 °F 88% 30.30 in - NW 5.8 mph - N/A   Clear
4:30 AM 55.4 °F 51.8 °F 88% 30.33 in - NNW 6.9 mph - N/A   Clear
5:00 AM 54 °F 50 °F 83% 30.33 in - NNW 8.1 mph - -  
5:00 AM 53.6 °F 50.0 °F 88% 30.30 in - NNW 8.1 mph - N/A   Clear
5:30 AM 55.4 °F 50.0 °F 82% 30.33 in - NNW 10.4 mph - N/A   Clear
6:00 AM 55 °F 50 °F 78% 30.34 in 9 mi NNW 8.1 mph - -   Haze
6:00 AM 55.4 °F 50.0 °F 82% 30.33 in - NNW 8.1 mph - N/A   Clear
6:30 AM 55.4 °F 50.0 °F 82% 30.33 in - NW 10.4 mph - N/A   Clear
7:00 AM 57 °F 50 °F 70% 30.35 in - NW 9.2 mph - -  
7:00 AM 57.2 °F 50.0 °F 77% 30.33 in - NW 9.2 mph - N/A   Clear
7:30 AM 59.0 °F 50.0 °F 72% 30.33 in - NNW 8.1 mph - N/A   Clear
8:00 AM 60 °F 50 °F 61% 30.35 in - NW 9.2 mph - -  
8:00 AM 60.8 °F 50.0 °F 68% 30.33 in - NW 9.2 mph - N/A   Clear
8:30 AM 62.6 °F 50.0 °F 63% 30.33 in - NW 9.2 mph - N/A   Clear
9:00 AM 65 °F 51 °F 49% 30.34 in 11 mi NW 8.1 mph - -   Haze
9:00 AM 66.2 °F 50.0 °F 56% 30.33 in - NW 8.1 mph - N/A   Clear
9:30 AM 68.0 °F 50.0 °F 52% 30.33 in - NW 8.1 mph - N/A   Clear
10:00 AM 72 °F 49 °F 33% 30.32 in - NW 10.4 mph - -  
10:00 AM 71.6 °F 48.2 °F 43% 30.30 in - NW 10.4 mph - N/A   Clear
10:30 AM 75.2 °F 48.2 °F 38% 30.30 in - NW 9.2 mph - N/A   Clear
11:00 AM 76 °F 46 °F 24% 30.30 in - NW 8.1 mph - -  
11:00 AM 75.2 °F 46.4 °F 36% 30.30 in - NW 8.1 mph - N/A   Clear
11:30 AM 78.8 °F 42.8 °F 28% 30.27 in - NW 9.2 mph - N/A   Clear
12:00 PM 80 °F 43 °F 17% 30.27 in 12 mi NW 8.1 mph - -   Haze
12:00 PM 80.6 °F 42.8 °F 26% 30.24 in - NW 8.1 mph - N/A   Clear
12:30 PM 80.6 °F 44.6 °F 28% 30.24 in - West 10.4 mph - N/A   Clear
1:00 PM 80 °F 45 °F 19% 30.24 in - WSW 6.9 mph - -  
1:00 PM 80.6 °F 44.6 °F 28% 30.21 in - WSW 6.9 mph - N/A   Clear
1:30 PM 82.4 °F 44.6 °F 26% 30.21 in - West 5.8 mph - N/A   Clear
2:00 PM 81 °F 46 °F 19% 30.22 in - WNW 9.2 mph - -  
2:00 PM 80.6 °F 46.4 °F 30% 30.21 in - WNW 9.2 mph - N/A   Clear
2:30 PM 84.2 °F 44.6 °F 25% 30.18 in - WNW 9.2 mph - N/A   Clear
3:00 PM 85 °F 45 °F 16% 30.21 in 16 mi NW 9.2 mph - -   Haze
3:00 PM 84.2 °F 44.6 °F 25% 30.18 in - NW 9.2 mph - N/A   Clear
3:30 PM 84.2 °F 44.6 °F 25% 30.18 in - NW 8.1 mph - N/A   Clear
4:00 PM 83 °F 44 °F 16% 30.20 in - SW 5.8 mph - -  
4:00 PM 82.4 °F 44.6 °F 26% 30.18 in - SW 5.8 mph - N/A   Clear
4:30 PM 80.6 °F 48.2 °F 32% 30.18 in - East 11.5 mph - N/A   Clear
5:00 PM 76 °F 47 °F 25% 30.22 in - East 12.7 mph - -  
5:00 PM 75.2 °F 46.4 °F 36% 30.21 in - East 12.7 mph - N/A   Clear
5:30 PM 71.6 °F 51.8 °F 50% 30.21 in - ENE 12.7 mph - N/A   Clear
6:00 PM 72 °F 55 °F 44% 30.24 in 19 mi ENE 11.5 mph - -   Partly Cloudy
6:00 PM 71.6 °F 55.4 °F 57% 30.21 in - ENE 11.5 mph - N/A   Clear
6:30 PM 71.6 °F 55.4 °F 57% 30.24 in - NE 5.8 mph - N/A   Clear
7:00 PM 70 °F 57 °F 53% 30.25 in - NNE 6.9 mph - -  
7:00 PM 69.8 °F 57.2 °F 64% 30.24 in - NNE 6.9 mph - N/A   Clear
7:30 PM 69.8 °F 57.2 °F 64% 30.24 in - NE 5.8 mph - N/A   Clear
8:00 PM 69 °F 58 °F 58% 30.25 in - NNE 4.6 mph - -  
8:00 PM 68.0 °F 57.2 °F 68% 30.24 in - NNE 4.6 mph - N/A   Clear
8:30 PM 68.0 °F 59.0 °F 73% 30.24 in - ENE 4.6 mph - N/A   Clear
9:00 PM 65 °F 60 °F 81% 30.26 in 16 mi Calm Calm - -   Haze
9:00 PM 66.2 °F 60.8 °F 83% 30.24 in - Calm Calm - N/A   Clear
9:30 PM 66.2 °F 59.0 °F 78% 30.24 in - WSW 5.8 mph - N/A   Clear
10:00 PM 68 °F 55 °F 54% 30.26 in - WSW 4.6 mph - -  
10:00 PM 68.0 °F 55.4 °F 64% 30.24 in - WSW 4.6 mph - N/A   Clear
11:00 PM 68 °F 54 °F 52% 30.27 in - NW 5.8 mph - -  
11:00 PM 68.0 °F 55.4 °F 64% 30.24 in - NW 5.8 mph - N/A   Clear
11:30 PM 68.0 °F 53.6 °F 60% 30.24 in - North 8.1 mph - N/A   Clear